Baton Rouge, LA

5:44 AM CST on December 03, 2016 (GMT -0600)
Baton Rouge Metro-Ryan

Weather History for KBTR - September, 2012

Change the Weather History Date:

Tuesday, September 18, 2012

  Actual Average Record
Temperature  
Mean Temperature 76 °F 78 °F  
Max Temperature 84 °F 88 °F 98 °F (1927)
Min Temperature 67 °F 68 °F 50 °F (1903)
Degree Days  
Heating Degree Days 0 0  
Month to date heating degree days 0 0  
Since 1 July heating degree days 0 0  
Cooling Degree Days 11 13  
Month to date cooling degree days 272 274  
Year to date cooling degree days 2659 2435  
Growing Degree Days 26 (Base 50)    
Moisture  
Dew Point 69 °F    
Average Humidity 79    
Maximum Humidity 100    
Minimum Humidity 58    
Precipitation  
Precipitation 0.07 in 0.14 in 1.74 in (2009)
Month to date precipitation 1.31 2.84  
Year to date precipitation 45.58 44.55  
Snow  
Snow 0.00 in - - ()
Month to date snowfall 0.0  
Since 1 July snowfall 0.0  
Since 1 September snowfall 0.0  
Snow Depth 0.00 in    
Sea Level Pressure  
Sea Level Pressure 29.87 in    
Wind  
Wind Speed 4 mph (NW)    
Max Wind Speed 13 mph    
Max Gust Speed 20 mph    
Visibility 9 miles    
Events Rain    
T = Trace of Precipitation, MM = Missing Value Source: NWS Daily Summary

Daily Weather History Graph

Daily Weather History Graph

Search for Another Location

Airport or City:

Trip Planner

Search our weather history database for the weather conditions in past years. The results will help you decide how hot, cold, wet, or windy it might be!

Date:

Astronomy

Sep. 18, 2012 Rise Set
Actual Time 6:50 AM CDT 7:05 PM CDT
Civil Twilight 6:26 AM CDT 7:29 PM CDT
Nautical Twilight 5:58 AM CDT 7:57 PM CDT
Astronomical Twilight 5:30 AM CDT 8:26 PM CDT
Moon 9:34 AM CDT (9/18) 8:47 PM CDT (9/18)
Length of Visible Light 13h 02m
Length of Day
12h 14m
Waxing Crescent, 9% of the Moon is Illuminated
Sep 18
Waxing Crescent
Sep 22
First Quarter
Sep 29
Full
Oct 8
Last Quarter
Oct 15
New

Hourly Weather History & Observations

Time (CDT) Temp. Heat Index Dew Point Humidity Pressure Visibility Wind Dir Wind Speed Gust Speed Precip Events Conditions
12:26 AM 69.8 °F - 69.8 °F 100% 29.79 in 10.0 mi West 5.8 mph - N/A   Mostly Cloudy
12:41 AM 69.8 °F - 69.8 °F 100% 29.79 in 10.0 mi WSW 4.6 mph - N/A   Scattered Clouds
12:53 AM 69.1 °F - 69.1 °F 100% 29.78 in 10.0 mi West 5.8 mph - N/A   Partly Cloudy
1:17 AM 69.8 °F - 69.8 °F 100% 29.78 in 10.0 mi West 3.5 mph - N/A   Mostly Cloudy
1:39 AM 69.8 °F - 69.8 °F 100% 29.79 in 10.0 mi Calm Calm - N/A   Overcast
1:53 AM 70.0 °F - 70.0 °F 100% 29.79 in 10.0 mi Calm Calm - N/A   Overcast
2:03 AM 71.6 °F - 69.8 °F 94% 29.78 in 10.0 mi Calm Calm - N/A   Overcast
2:53 AM 71.1 °F - 70.0 °F 96% 29.79 in 6.0 mi WNW 5.8 mph - N/A   Overcast
3:53 AM 71.1 °F - 70.0 °F 96% 29.78 in 5.0 mi WSW 6.9 mph - N/A   Overcast
4:48 AM 71.6 °F - 69.8 °F 94% 29.78 in 7.0 mi West 8.1 mph - 0.00 in Rain Light Rain
4:53 AM 71.1 °F - 70.0 °F 96% 29.78 in 5.0 mi West 6.9 mph - 0.01 in Rain Heavy Rain
5:31 AM 71.6 °F - 69.8 °F 94% 29.79 in 6.0 mi West 10.4 mph - 0.02 in Rain Light Rain
5:53 AM 71.1 °F - 70.0 °F 96% 29.80 in 10.0 mi WNW 4.6 mph - 0.03 in Rain Light Rain
6:53 AM 70.0 °F - 69.1 °F 97% 29.83 in 10.0 mi NW 3.5 mph - 0.03 in   Overcast
7:00 AM 69.8 °F - 69.8 °F 100% 29.83 in 10.0 mi Calm Calm - N/A   Mostly Cloudy
7:22 AM 69.8 °F - 69.8 °F 100% 29.85 in 10.0 mi NW 4.6 mph - N/A   Overcast
7:30 AM 71.6 °F - 69.8 °F 94% 29.85 in 10.0 mi Variable 4.6 mph - N/A   Overcast
7:42 AM 71.6 °F - 69.8 °F 94% 29.86 in 10.0 mi NNW 4.6 mph - N/A   Overcast
7:53 AM 72.0 °F - 70.0 °F 93% 29.86 in 10.0 mi North 4.6 mph - N/A   Overcast
8:53 AM 73.0 °F - 69.1 °F 87% 29.88 in 10.0 mi WNW 5.8 mph - N/A   Scattered Clouds
9:24 AM 73.4 °F - 69.8 °F 88% 29.89 in 10.0 mi Variable 4.6 mph - N/A   Mostly Cloudy
9:53 AM 73.9 °F - 70.0 °F 87% 29.90 in 10.0 mi NW 9.2 mph - N/A   Overcast
10:53 AM 75.0 °F - 69.1 °F 82% 29.91 in 10.0 mi Variable 4.6 mph - 0.00 in   Overcast
11:53 AM 75.0 °F - 68.0 °F 79% 29.93 in 10.0 mi NNW 9.2 mph 16.1 mph N/A   Mostly Cloudy
12:53 PM 79.0 °F - 68.0 °F 69% 29.93 in 10.0 mi NNW 5.8 mph 17.3 mph 0.00 in   Scattered Clouds
1:53 PM 82.0 °F 84.5 °F 66.9 °F 60% 29.92 in 10.0 mi Variable 3.5 mph - N/A   Partly Cloudy
2:53 PM 81.0 °F 83.0 °F 66.0 °F 60% 29.91 in 10.0 mi Variable 3.5 mph - N/A   Mostly Cloudy
3:53 PM 82.9 °F 85.4 °F 66.9 °F 58% 29.91 in 10.0 mi NW 4.6 mph - N/A   Mostly Cloudy
4:53 PM 82.9 °F 85.0 °F 66.0 °F 56% 29.91 in 10.0 mi Variable 4.6 mph - N/A   Partly Cloudy
5:53 PM 82.0 °F 84.1 °F 66.0 °F 58% 29.91 in 10.0 mi NNW 4.6 mph - N/A   Scattered Clouds
6:53 PM 77.0 °F - 66.9 °F 71% 29.92 in 10.0 mi NNW 4.6 mph - N/A   Clear
7:53 PM 75.0 °F - 66.9 °F 76% 29.93 in 10.0 mi Calm Calm - N/A   Clear
8:53 PM 73.0 °F - 66.9 °F 81% 29.96 in 10.0 mi Calm Calm - N/A   Clear
9:53 PM 71.1 °F - 66.9 °F 87% 30.00 in 10.0 mi North 3.5 mph - N/A   Clear
10:53 PM 70.0 °F - 66.0 °F 87% 30.02 in 10.0 mi North 3.5 mph - N/A   Clear
11:53 PM 69.1 °F - 66.0 °F 90% 30.04 in 10.0 mi Calm Calm - N/A   Scattered Clouds